Location: Newark
(36.1358°N, 115.1208°W)
Time: 19:58:02
(UTC+00:00)

Envisat - Visible Passes

Search period start: 19 September 2021 00:00
Search period end: 29 September 2021 00:00
Orbit: 764 x 766 km, 98.2° (Epoch: 19 September)

Date Brightness Start Highest point End Pass type
(mag) Time Alt. Az. Time Alt. Az. Time Alt. Az.
19 Sep 3.2 12:45:29 10° NNE 12:50:35 78° ESE 12:55:40 10° S visible
20 Sep 4.8 12:09:07 10° NNE 12:13:39 32° E 12:18:10 10° SSE visible
21 Sep 6.0 11:34:00 10° ENE 11:36:32 14° E 11:39:04 10° ESE visible
22 Sep 3.6 12:34:03 10° NNE 12:39:04 60° E 12:44:04 10° S visible
23 Sep 5.3 11:57:55 10° NE 12:02:05 25° E 12:06:14 10° SSE visible
24 Sep 6.3 11:24:26 10° E 11:24:54 10° E 11:25:22 10° E visible
24 Sep 3.0 12:59:19 10° N 13:04:24 75° WNW 13:09:27 10° SSW visible
25 Sep 4.2 12:22:39 10° NNE 12:27:33 46° E 12:32:23 10° S visible
26 Sep 5.7 11:46:51 10° NE 11:50:30 20° E 11:54:07 10° SE visible
27 Sep 3.1 12:47:48 10° NNE 12:52:54 84° E 12:57:59 10° SSW visible
28 Sep 4.7 12:11:21 10° NNE 12:15:59 35° E 12:20:36 10° SSE visible
